Weather History for Beauvais, France

Change the Weather History Date:

Thursday, October 10, 2013

  Actual Average Record
Temperature  
Mean Temperature 48 °F -  
Max Temperature 55 °F 54 °F 75 °F (2005)
Min Temperature 41 °F 43 °F 35 °F (2008)
Degree Days  
Heating Degree Days 17    
Moisture  
Dew Point 42 °F    
Average Humidity 80    
Maximum Humidity 93    
Minimum Humidity 66    
Precipitation  
Precipitation 0.00 in - - ()
Sea Level Pressure  
Sea Level Pressure 29.96 in    
Wind  
Wind Speed 11 mph ()    
Max Wind Speed 24 mph    
Max Gust Speed 39 mph    
Visibility 6.2 miles    
Events Rain    
Averages and records for this station are not official NWS values.
T = Trace of Precipitation, MM = Missing Value Source: Averaged Metar Reports

Daily Weather History Graph

Daily Weather History Graph

Search for Another Location

Airport:

Trip Planner

Search our weather history database for the weather conditions in past years. The results will help you decide how hot, cold, wet, or windy it might be!

Date:

Astronomy

Oct. 10, 2013 Rise Set
Actual Time 8:04 AM CEST 7:11 PM CEST
Civil Twilight 7:32 AM CEST 7:43 PM CEST
Nautical Twilight 6:55 AM CEST 8:19 PM CEST
Astronomical Twilight 6:18 AM CEST 8:57 PM CEST
Moon 2:04 PM CEST (10/10) 11:11 PM CEST (10/10)
Length of Visible Light 12h 10m
Length of Day
11h 06m
Waxing Crescent, 33% of the Moon is Illuminated
Oct 10
Waxing Crescent
Oct 12
First Quarter
Oct 19
Full
Oct 27
Last Quarter
Nov 3
New

Hourly Weather History & Observations

Time (CEST) Temp. Windchill Dew Point Humidity Pressure Visibility Wind Dir Wind Speed Gust Speed Precip Events Conditions
12:00 AM 55.4 °F - 50.0 °F 82% 29.95 in 6.2 mi WNW 11.5 mph - N/A   Overcast
12:30 AM 55.4 °F - 50.0 °F 82% 29.95 in 6.2 mi NW 8.1 mph - N/A   Overcast
1:00 AM 53.6 °F - 46.4 °F 77% 29.95 in 6.2 mi NW 13.8 mph - N/A   Overcast
1:30 AM 51.8 °F - 46.4 °F 82% 29.95 in 6.2 mi NNW 13.8 mph - N/A   Overcast
2:00 AM 51.8 °F - 46.4 °F 82% 29.95 in 6.2 mi NW 6.9 mph - N/A   Mostly Cloudy
2:30 AM 51.8 °F - 44.6 °F 76% 29.95 in 6.2 mi NNW 12.7 mph - N/A   Mostly Cloudy
3:00 AM 50.0 °F - 39.2 °F 66% 29.95 in 6.2 mi NNW 17.3 mph - N/A   Mostly Cloudy
3:30 AM 46.4 °F 40.4 °F 37.4 °F 71% 29.95 in 6.2 mi NNW 13.8 mph - N/A   Unknown
4:00 AM 44.6 °F 40.2 °F 37.4 °F 76% 29.95 in 6.2 mi NNW 8.1 mph - N/A   Unknown
4:30 AM 42.8 °F 38.6 °F 37.4 °F 81% 29.95 in 6.2 mi NW 6.9 mph - N/A   Unknown
5:00 AM 41.0 °F 37.1 °F 37.4 °F 87% 29.95 in 6.2 mi WNW 5.8 mph - N/A   Unknown
5:30 AM 41.0 °F 37.1 °F 37.4 °F 87% 29.95 in 6.2 mi WNW 5.8 mph - N/A   Unknown
6:00 AM 41.0 °F 35.8 °F 37.4 °F 87% 29.95 in 6.2 mi WNW 8.1 mph - N/A   Scattered Clouds
6:30 AM 41.0 °F 38.0 °F 39.2 °F 93% 29.95 in 6.2 mi West 4.6 mph - N/A   Mostly Cloudy
7:00 AM 41.0 °F 39.0 °F 39.2 °F 93% 29.95 in 6.2 mi West 3.5 mph - N/A   Mostly Cloudy
7:30 AM 41.0 °F 37.1 °F 39.2 °F 93% 29.95 in 6.2 mi West 5.8 mph - N/A   Partly Cloudy
8:00 AM 41.0 °F 38.0 °F 37.4 °F 87% 29.95 in 6.2 mi West 4.6 mph - N/A   Unknown
8:30 AM 41.0 °F 39.0 °F 39.2 °F 93% 29.95 in 6.2 mi West 3.5 mph - N/A   Unknown
9:00 AM 42.8 °F 41.1 °F 41.0 °F 93% 29.95 in 6.2 mi WNW 3.5 mph - N/A   Mostly Cloudy
9:30 AM 46.4 °F 41.9 °F 42.8 °F 87% 29.95 in 6.2 mi WNW 9.2 mph - N/A   Mostly Cloudy
10:00 AM 48.2 °F - 42.8 °F 82% 29.95 in 6.2 mi NW 13.8 mph - N/A   Mostly Cloudy
10:30 AM 48.2 °F - 41.0 °F 76% 29.95 in 6.2 mi NW 13.8 mph - N/A   Overcast
11:00 AM 48.2 °F - 41.0 °F 76% 29.98 in 6.2 mi WNW 11.5 mph - N/A   Overcast
11:30 AM 50.0 °F - 42.8 °F 76% 29.98 in 6.2 mi NW 12.7 mph - N/A   Overcast
12:00 PM 50.0 °F - 42.8 °F 76% 29.98 in 6.2 mi NW 13.8 mph - N/A   Overcast
12:30 PM 51.8 °F - 42.8 °F 71% 29.98 in 6.2 mi NW 16.1 mph - N/A   Overcast
1:00 PM 50.0 °F - 44.6 °F 82% 29.98 in 6.2 mi NW 15.0 mph - N/A   Overcast
1:30 PM 50.0 °F - 44.6 °F 82% 29.98 in 6.2 mi NW 16.1 mph - N/A Rain Light Rain
2:00 PM 51.8 °F - 46.4 °F 82% 29.98 in 6.2 mi NW 16.1 mph - N/A   Mostly Cloudy
2:30 PM 51.8 °F - 44.6 °F 76% 29.98 in 6.2 mi NW 16.1 mph - N/A   Overcast
3:00 PM 51.8 °F - 44.6 °F 76% 29.98 in 6.2 mi NW 21.9 mph - N/A   Overcast
3:30 PM 53.6 °F - 44.6 °F 72% 29.98 in 6.2 mi NW 21.9 mph - N/A   Overcast
4:00 PM 53.6 °F - 44.6 °F 72% 29.98 in 6.2 mi NW 24.2 mph 39.1 mph N/A   Mostly Cloudy
4:30 PM 53.6 °F - 42.8 °F 67% 29.98 in 6.2 mi NW 23.0 mph - N/A   Mostly Cloudy
5:00 PM 51.8 °F - 42.8 °F 71% 29.98 in 6.2 mi NW 19.6 mph - N/A   Scattered Clouds
5:30 PM 51.8 °F - 42.8 °F 71% 29.98 in 6.2 mi NW 18.4 mph - N/A   Scattered Clouds
6:00 PM 50.0 °F - 42.8 °F 76% 29.98 in 6.2 mi NW 17.3 mph - N/A   Scattered Clouds
6:30 PM 48.2 °F - 44.6 °F 87% 29.98 in 6.2 mi NW 13.8 mph - N/A   Scattered Clouds
7:00 PM 48.2 °F - 42.8 °F 82% 29.98 in 6.2 mi NW 15.0 mph - N/A   Mostly Cloudy
7:30 PM 48.2 °F - 42.8 °F 82% 29.98 in 6.2 mi WNW 12.7 mph - N/A   Overcast
8:00 PM 48.2 °F - 42.8 °F 82% 29.98 in 6.2 mi NW 17.3 mph - N/A   Overcast
8:30 PM 48.2 °F - 44.6 °F 87% 29.98 in 6.2 mi NW 15.0 mph - N/A   Mostly Cloudy
9:00 PM 48.2 °F - 42.8 °F 82% 29.98 in 6.2 mi NW 12.7 mph - N/A   Mostly Cloudy
9:30 PM 48.2 °F - 42.8 °F 82% 29.98 in 6.2 mi NNW 16.1 mph - N/A   Mostly Cloudy
10:00 PM 48.2 °F - 42.8 °F 82% 29.95 in 6.2 mi NW 18.4 mph - N/A   Scattered Clouds
10:30 PM 48.2 °F - 42.8 °F 82% 29.95 in 6.2 mi NW 18.4 mph - N/A   Mostly Cloudy
11:00 PM 50.0 °F - 41.0 °F 71% 29.95 in 6.2 mi NW 20.7 mph - N/A   Unknown
11:30 PM 48.2 °F - 41.0 °F 76% 29.95 in 6.2 mi NW 21.9 mph 35.7 mph N/A   Unknown